Hlavní strana
METAR-TAF:

METAR-TAF

Letiště :

Jasper County, Indiana, Spojené státy americké

zeměpisná šířka: 40-56-52N, zeměpisná délka: 087-10-57W, výška: 213 m

Aktuální stav počasí

Zpráva byla vytvořena před 23 minutami, v 10:15 UTC
Severozápadní vítr 5 kt
Teplota -2°C
Vlhkost vzduchu 93%
Tlak 1013 hPa
Viditelnost: 16.1 km
Zataženo ve výšce 1100 ft

METAR: KRZL 271015Z AUTO 31005KT 10SM OVC011 M02/M03 A2991 RMK AO2

Čas: 05:38 (10:38 UTC)


TAF: chybějící

Stav a předpovědi počasí z více než 4 000 letišť (zprávy METAR a TAF).

Červené a žluté tečky na mapě představují dostupné meteorologické stanice.

Když kurzor umístíte na tečku, zobrazí se název stanice.

Pak kliknutím zobrazíte stav a předpověď počasí.

Chcete-li změnit mapu, kliknutím na zelené tlačítko se znaménkem +mapu přiblížíte, kliknutím na zelené tlačítko se znaménkem – mapu oddálíte a kliknutím na zelené šipky přejdete na sousední mapy.


METAR-TAF: